Regional Weather Roundup
Issued by NWS

Home | Current Version | Previous Version | Graphics & Text | Print | Product List | Glossary On
Versions: 1 2 3 4 5 6 7 8 9 10 11 12 13 14 15 16 17 18 19 20 21 22 23 24 25 26 27 28 29 30 31 32 33 34 35 36 37 38 39 40 41 42 43 44 45 46 47 48 49 50
000
ASUS43 KFSD 282002
RWRSD

WEATHER ROUNDUP FOR SOUTH DAKOTA
NATIONAL WEATHER SERVICE SIOUX FALLS SD
300 PM CDT WED JUN 28 2017

NOTE: "FAIR" INDICATES FEW OR NO CLOUDS BELOW 12,000 FEET WITH NO
SIGNIFICANT WEATHER AND/OR OBSTRUCTIONS TO VISIBILITY.


SDZ001>005-009-010-012>017-282100-
NORTHWEST AND NORTH CENTRAL SOUTH DAKOTA

CITY           SKY/WX    TMP DP  RH WIND       PRES   REMARKS
BUFFALO          N/A     81  31  16 VRB5      29.70F
FAITH            N/A     83  36  18 N10       29.73F
MOBRIDGE       SUNNY     85  34  16 NW13      29.66S
$$

SDZ012>016-024>037-041>051-057-063-072>074-282100-
SOUTHWEST AND SOUTH CENTRAL SOUTH DAKOTA

CITY           SKY/WX    TMP DP  RH WIND       PRES   REMARKS
RAPID CTY ARPT SUNNY     81  47  30 VRB3      29.76F
PIERRE         SUNNY     83  50  31 NW16G23   29.67F
CUSTER         MOSUNNY   75  37  25 NW12G21   29.89S
PHILIP         SUNNY     83  49  30 NW7       29.72F
PINE RIDGE     SUNNY     81  51  35 NE6       29.79F
SPEARFISH      FAIR      77  45  31 NE10      29.81F
WINNER         FAIR      88  54  31 W16G28    29.69F
$$

SDZ004>011-016>023-039-040-282100-
NORTHEAST SOUTH DAKOTA

CITY           SKY/WX    TMP DP  RH WIND       PRES   REMARKS
ABERDEEN       SUNNY     84  57  39 NW20G29   29.59F
WATERTOWN      MOSUNNY   78  63  59 W13       29.60S
BROOKINGS      PTSUNNY   81  63  54 NW14      29.61S
SISSETON         N/A     79  64  60 W24G32    29.54R
$$

SDZ017-020-022-023-036>040-048>070-282100-
SOUTHEAST SOUTH DAKOTA

CITY           SKY/WX    TMP DP  RH WIND       PRES   REMARKS
SIOUX FALLS    MOSUNNY   83  66  56 NW16G23   29.61F
HURON          SUNNY     86  55  34 NW21G26   29.62R
CHAMBERLAIN    MOSUNNY   85  57  38 NW13G24   29.66F
MITCHELL       MOSUNNY   88  57  34 NW14G21   29.61F
YANKTON        MOSUNNY   85  65  51 NW12G18   29.64S
$$

ABBREVIATIONS USED IN REMARKS
   TC - TEMPERATURE IN CELSIUS
  WCI - WIND CHILL INDEX
   HX - HEAT INDEX
  VSB - VISIBILITY




USA.gov is the U.S. government's official web portal to all federal, state and local government web resources and services.